Total_Precipitation_Accumulation
1.41 1.53 1.65 1.67 1.71 1.79 1.90 2.01 2.07 1.98 1.77 1.63 1.64 1.65 1.67 1.71 1.86 1.50 1.42 1.63 1.51 1.42 1.37 1.30 1.24 1.22 1.20 1.25 1.32 1.39 1.47 1.54 1.60 1.65 1.72 1.84 1.94 2.03
1.14 1.22 1.34 1.43 1.52 1.60 1.72 1.82 1.87 1.87 1.81 1.63 1.57 1.58 1.57 1.52 1.67 1.35 1.34 1.53 1.40 1.30 1.22 1.18 1.16 1.15 1.13 1.14 1.20 1.23 1.22 1.21 1.25 1.25 1.26 1.31 1.43 1.60
1.14 1.19 1.25 1.29 1.38 1.42 1.45 1.51 1.63 1.73 1.82 1.76 1.60 1.56 1.58 1.55 1.47 1.28 1.19 1.17 1.20 1.25 1.19 1.13 1.06 1.03 1.03 1.01 0.96 0.97 0.97 0.97 1.00 1.02 1.01 1.06 1.09 1.17
1.02 1.08 1.09 1.10 1.18 1.28 1.35 1.34 1.40 1.50 1.61 1.67 1.58 1.46 1.44 1.45 1.41 1.32 1.12 1.02 1.02 1.06 1.00 0.94 0.92 0.88 0.84 0.83 0.82 0.80 0.79 0.80 0.82 0.86 0.87 0.89 0.93 0.99
0.88 0.89 0.92 0.96 0.97 1.01 1.08 1.14 1.18 1.21 1.34 1.37 1.36 1.31 1.27 1.23 1.27 1.24 1.13 1.13 0.96 0.94 0.86 0.80 0.75 0.72 0.67 0.64 0.66 0.70 0.70 0.66 0.64 0.67 0.69 0.72 0.74 0.77
0.69 0.71 0.78 0.85 0.86 0.87 0.87 0.92 0.97 1.09 1.18 1.22 1.20 1.19 1.18 1.11 1.14 1.17 1.14 1.07 0.96 0.78 0.80 0.70 0.64 0.57 0.56 0.56 0.53 0.52 0.54 0.60 0.67 0.67 0.59 0.53 0.53 0.52
0.60 0.58 0.59 0.68 0.76 0.73 0.68 0.77 0.89 1.00 1.06 1.09 1.04 0.99 0.98 1.03 1.04 1.00 0.97 0.95 0.90 0.80 0.83 0.75 0.69 0.66 0.67 0.63 0.56 0.51 0.50 0.48 0.50 0.53 0.52 0.47 0.45 0.42
0.62 0.62 0.56 0.56 0.57 0.55 0.56 0.69 0.84 0.88 0.92 0.99 0.97 0.97 0.97 0.98 0.99 0.98 1.01 1.02 1.01 0.86 0.84 0.77 0.70 0.75 0.73 0.68 0.63 0.54 0.48 0.49 0.47 0.44 0.45 0.43 0.43 0.43
0.59 0.58 0.50 0.48 0.52 0.53 0.55 0.59 0.67 0.69 0.76 0.90 1.00 0.97 0.99 1.03 1.08 1.03 1.09 1.13 1.08 0.97 1.01 0.94 0.75 0.70 0.58 0.54 0.56 0.49 0.47 0.48 0.47 0.44 0.44 0.45 0.43 0.43
0.55 0.55 0.57 0.56 0.51 0.52 0.52 0.55 0.65 0.72 0.73 0.76 0.93 0.93 0.90 0.95 1.02 1.08 1.14 1.15 1.11 1.04 1.10 1.10 0.82 0.73 0.59 0.63 0.59 0.47 0.42 0.41 0.44 0.43 0.42 0.42 0.43 0.44
0.46 0.43 0.47 0.52 0.52 0.50 0.54 0.66 0.74 0.80 0.67 0.66 0.76 0.83 0.86 0.90 0.90 0.97 1.15 1.30 1.25 1.03 1.01 1.11 0.94 0.81 0.71 0.70 0.64 0.55 0.46 0.42 0.38 0.39 0.42 0.44 0.45 0.48
0.46 0.44 0.41 0.42 0.43 0.43 0.53 0.67 0.78 0.79 0.71 0.72 0.88 0.97 0.95 1.01 0.97 1.00 1.21 1.29 1.24 1.19 1.01 1.05 1.02 0.99 0.95 0.76 0.70 0.66 0.61 0.54 0.44 0.41 0.40 0.41 0.49 0.53
0.47 0.49 0.44 0.33 0.31 0.34 0.47 0.57 0.64 0.63 0.73 0.90 1.00 1.02 1.04 1.08 1.03 0.99 1.12 1.21 1.28 1.32 1.08 1.08 1.10 1.11 1.14 0.92 0.73 0.68 0.69 0.69 0.67 0.67 0.62 0.53 0.49 0.50
0.49 0.47 0.41 0.32 0.31 0.35 0.45 0.52 0.54 0.62 0.81 0.99 1.08 1.06 0.98 0.95 0.96 0.93 1.01 1.06 1.11 1.10 1.00 1.05 1.18 1.22 1.15 0.97 0.82 0.71 0.73 0.80 0.89 0.96 0.93 0.85 0.69 0.64
0.38 0.34 0.32 0.33 0.37 0.49 0.51 0.51 0.61 0.81 0.93 1.01 1.09 1.08 0.98 0.90 0.86 0.81 0.88 0.98 0.99 0.86 0.71 0.76 0.98 1.03 1.07 1.02 0.93 0.86 0.85 0.86 0.98 1.13 1.16 1.09 0.95 0.81
0.36 0.37 0.41 0.46 0.51 0.60 0.67 0.77 0.82 0.87 0.87 0.96 1.02 0.97 0.86 0.81 0.84 0.83 0.89 0.95 1.00 0.92 0.73 0.66 0.77 0.91 0.98 0.91 0.93 0.93 0.91 1.00 1.02 1.13 1.27 1.30 1.16 0.92
0.29 0.46 0.67 0.74 0.80 0.86 0.88 0.93 0.98 0.91 0.85 0.86 0.89 0.90 0.86 0.83 0.82 0.78 0.85 0.88 0.94 0.94 0.82 0.71 0.71 0.76 0.77 0.79 0.87 0.90 0.91 0.99 1.09 1.18 1.30 1.44 1.39 1.13
0.33 0.56 0.69 0.74 0.80 0.81 0.82 0.86 0.92 0.92 0.85 0.81 0.81 0.82 0.81 0.78 0.80 0.75 0.74 0.83 0.90 0.85 0.81 0.74 0.71 0.73 0.74 0.70 0.76 0.85 0.90 1.05 1.15 1.18 1.17 1.29 1.48 1.34
0.50 0.64 0.66 0.71 0.75 0.71 0.70 0.76 0.80 0.79 0.72 0.71 0.70 0.69 0.68 0.69 0.75 0.76 0.71 0.70 0.70 0.67 0.67 0.65 0.69 0.76 0.81 0.85 0.85 0.94 1.00 1.07 1.14 1.13 1.12 1.21 1.40 1.35
0.59 0.64 0.64 0.64 0.67 0.66 0.65 0.65 0.63 0.58 0.54 0.57 0.62 0.64 0.64 0.65 0.66 0.68 0.62 0.58 0.61 0.61 0.59 0.62 0.68 0.74 0.80 0.84 1.02 1.14 1.07 0.95 0.97 1.10 1.19 1.24 1.35 1.32
0.53 0.54 0.55 0.55 0.56 0.61 0.61 0.55 0.51 0.47 0.45 0.46 0.50 0.55 0.57 0.55 0.57 0.55 0.49 0.42 0.48 0.54 0.57 0.59 0.62 0.62 0.65 0.73 0.88 1.03 1.05 1.08 1.04 1.09 1.15 1.16 1.06 0.96
0.43 0.45 0.44 0.42 0.45 0.48 0.47 0.43 0.41 0.42 0.41 0.39 0.40 0.40 0.41 0.44 0.46 0.43 0.40 0.39 0.43 0.45 0.48 0.50 0.51 0.52 0.58 0.70 0.85 0.97 0.98 0.88 0.86 0.92 0.96 0.87 0.76 0.79
0.41 0.39 0.36 0.34 0.34 0.35 0.37 0.38 0.37 0.37 0.37 0.38 0.37 0.34 0.33 0.34 0.33 0.32 0.31 0.30 0.29 0.31 0.36 0.41 0.42 0.44 0.47 0.50 0.58 0.64 0.61 0.57 0.55 0.59 0.69 0.78 0.77 0.80